星链-31277 (STARLINK-31277 )

导读

STARLINK-31277是美国太空探索技术公司星链星座的成员,于2024年5月3日发射入轨,属于星链网络的卫星补网任务。它依托星链低轨星座布局,服务全球高速互联网接入,可为偏远地区、海上航空等场景提供通信支持,目前已在轨道稳定运行,助力星链星座的全球覆盖与服务能力升级。

Basic Information
目录编号:
59651
目录名称:
STARLINK-31277
国际标识:
2024-082W
轨道中心:
EARTH
卫星名称:
星链-31277
卫星全名:
星链-31277 (STARLINK-31277 )
卫星状态:
在轨 (已飞行854 天)
发射日期:
2024-05-03 UTC
国别 :
美国 (US)
星等 :
--
Orbit Information
数据来源 国际轨道数据 AOE轨道数据
星历时间 2026-09-04T06:51:18+0800
9小时前
查看轨道信息
2026-09-03T23:00:00+0800
17小时前
查看轨道信息
半长轴 6861.204km 6861.197km
偏心率 0.0001382 0.0000252
轨道倾角 43.004° 43.002°
近地点辐角 273.403° 309.627°
升交点赤经 213.182° 215.034°
平近点角 86.667° 48.451°
近地点 482.118km 482.887km
远地点 484.016km 483.233km
周期 94.267分钟 94.267分钟
每日圈数 15.275742 15.275764
Detailed Information
固有亮度:
5
最大亮度:
1.5
卫星平台:
Starlink v2.0 mini
覆盖范围:
全球
运营商:
太空探索技术公司
运营商所在国:
美国
制造商(研发单位):
太空探索技术公司
制造商所在国:
美国
使用方式:
暂无
Satellite Introduction
星链(Starlink)计划是由太空探索技术公司(SpaceX)提出的一个巨型低轨卫星互联网星座项目,计划在2019年至2024年间在太空搭建由约1.2万颗卫星组成的“星链”网络,其中1584颗将部署在地球上空550千米处的近地轨道,并从2020年开始工作。该卫星仍在工作。
2D Orbit Map
3D Orbit Map
Orbit Altitude Analysis Chart
Orbit Inclination Analysis Chart
Orbit Comprehensive Analysis Chart
View Comprehensive Chart
Conjunction Data List
Event ID Objects TCA Miss Dist (km) Collision Risk Probability Collision Risk Index (CRI) Action
CDM_260904-174705-965106-402021
2026-09-04T
17:47:47+0000
0.189 km
中距离
7.363673E-4 高风险 0.92
CDM_260904-161305-965106-402022
2026-09-04T
16:13:37+0000
2.136 km
极远距离
1.891507E-6 低风险 0.41
CDM_260905-070805-965106-402021
2026-09-05T
07:08:04+0000
2.422 km
极远距离
1.459888E-6 低风险 0.38
CDM_260904-192105-965106-402021
2026-09-04T
19:21:56+0000
2.539 km
极远距离
1.343798E-6 低风险 0.38